[Iaude] MPEC H82: 2024 HP1 [a=1.77,e=0.48,i=5.4,H=24.3]

mpec at cfa.harvard.edu mpec at cfa.harvard.edu
Sun Apr 28 17:49:06 EDT 2024


M.P.E.C. 2024-H82                                Issued 2024 April 28, 21:47 UT

     The Minor Planet Electronic Circulars contain information on unusual
         minor planets, routine data on comets and natural satellites,
         and occasional editorial announcements.  They are published
    on behalf of Division F of the International Astronomical Union by the
          Minor Planet Center, Smithsonian Astrophysical Observatory,
                          Cambridge, MA 02138, U.S.A.
			  
             Prepared using the Tamkin Foundation Computer Network

                              MPC at CFA.HARVARD.EDU
            URL https://www.minorplanetcenter.net/    ISSN 1523-6714

                                    2024 HP1                                    


Observations:
     K24H01P*1C2024 04 26.38592914 55 07.378+39 17 24.61         19.95GVEH082G96
     K24H01P 1C2024 04 26.39114114 55 09.372+39 16 22.44         19.86GVEH082G96
     K24H01P 1C2024 04 26.39636414 55 11.384+39 15 21.06         20.09GVEH082G96
     K24H01P 1C2024 04 26.40159614 55 13.350+39 14 19.10         20.32GVEH082G96
     K24H01P KC2024 04 26.43958714 55 28.042+39 06 46.94         20.10GVEH082I52
     K24H01P KC2024 04 26.44109714 55 28.625+39 06 29.27         20.38GVEH082I52
     K24H01P KC2024 04 26.44262614 55 29.230+39 06 10.76         20.75GVEH082I52
     K24H01P KC2024 04 26.44415814 55 29.816+39 05 52.73         20.58GVEH082I52
     K24H01P KB2024 04 27.17870 15 00 36.977+36 49 02.35         20.3 GVEH082734
     K24H01P KB2024 04 27.18667 15 00 39.602+36 47 39.05         20.2 GVEH082734
     K24H01P KB2024 04 27.19434 15 00 42.151+36 46 18.52         20.0 GVEH082734
     K24H01P KC2024 04 27.25679115 01 04.469+36 35 31.31         20.30GVEH082I52
     K24H01P KC2024 04 27.25807115 01 04.912+36 35 19.21         19.83GVEH082I52
     K24H01P KC2024 04 27.25935115 01 05.308+36 35 05.42         20.41GVEH082I52
     K24H01P KB2024 04 27.88691315 04 42.12 +34 47 22.0          19.6 GXEH082958
     K24H01P KB2024 04 27.89338415 04 43.96 +34 46 19.3                XEH082958
     K24H01P KB2024 04 27.89986115 04 45.83 +34 45 16.1          19.7 GXEH082958
     K24H01P KC2024 04 27.92806 15 04 52.23 +34 40 46.37         19.5 GqEH082C75
     K24H01P KC2024 04 27.92806315 04 51.91 +34 40 37.6          20.7 GVEH082K62
     K24H01P KC2024 04 27.92812 15 04 52.24 +34 40 45.79               qEH082C75
     K24H01P KC2024 04 27.92813 15 04 52.25 +34 40 45.59               qEH082C75
     K24H01P KC2024 04 27.93074915 04 52.69 +34 40 11.5          20.3 GVEH082K62
     K24H01P KC2024 04 27.93345815 04 53.44 +34 39 45.3          20.5 GVEH082K62
     K24H01P KC2024 04 27.93887315 04 54.95 +34 38 52.6          20.4 GVEH082K62

Observer details:
734 Farpoint Observatory, Eskridge.  Observers D. Cromer, G. Hug, D. Goodin,
    R. Valentine, P. Lessig.  Measurer G. Hug.  0.69-m f/3.54 reflector + CMO.
958 Observatoire de Dax.  Observer P. Dupouy.  0.50-m f/4.5 Reflector + CMO.
C75 Whitestar Observatory, Borgobello.  Observer T. Gregor.  Measurers V.
    Gonano, T. Gregor.  0.25-m f/5.7 Schmidt-Cassegrain + CCD.
G96 Mt. Lemmon Survey.  Observer T. Beuden.  Measurers T. Beuden, V. F.
    Carvajal, D. Fay, J. B. Fazekas, D. C. Fuls, A. R. Gibbs, A. D. Grauer, H.
    Groeller, J. K. Hogan, R. A. Kowalski, S. M. Larson, G. J. Leonard, D.
    Rankin, R. L. Seaman, F. C. Shelly, K. W. Wierzchos.  1.5-m reflector +
    10K CCD.
I52 Steward Observatory, Mt. Lemmon Station.  Observer R. A. Kowalski.
    Measurers T. Beuden, V. F. Carvajal, D. Fay, J. B. Fazekas, D. C. Fuls, A.
    R. Gibbs, A. D. Grauer, H. Groeller, J. K. Hogan, R. A. Kowalski, S. M.
    Larson, G. J. Leonard, D. Rankin, R. L. Seaman, F. C. Shelly, K. W.
    Wierzchos.  1.0-m prime focus + CCD.
K62 Teplice Observatory.  Observer Z. Moravec.  0.60-m f/3.3 reflector + CMOS.

Orbital elements:
2024 HP1                                                 Earth MOID = 0.0323 AU
Epoch 2024 Mar. 31.0 TT = JDT 2460400.5                 Veres                   
M   5.65329              (2000.0)            P               Q                  
n   0.41771323     Peri.  342.88273     -0.97331736     -0.22937645             
a   1.7723544      Node   183.87350     +0.21994178     -0.92474491             
e   0.4755479      Incl.    5.35568     +0.06541352     -0.30369935             
P   2.36           H   24.37          G   0.15           U   8                  
Residuals in seconds of arc
240426 G96  0.0   0.0     240427 734  0.2-  0.0     240427 958  0.1+  1.0-
240426 G96  0.0   0.4-    240427 734  0.3-  0.1-    240427 C75  0.0   0.2-
240426 G96  0.1+  0.2+    240427 734  0.0   0.3-    240427 K62  0.3-  0.2-
240426 G96  0.4-  0.3+    240427 I52  0.2-  0.7-    240427 C75  0.0   0.2-
240426 I52  0.1+  0.2-    240427 I52  0.2+  0.6+    240427 K62  0.0   0.1-
240426 I52  0.0   0.1+    240427 I52  0.2+  0.1+    240427 K62  0.2-  0.0
240426 I52  0.1+  0.2-    240427 958  0.9+  0.1+    240427 K62  0.3-  0.0
240426 I52  0.0   0.1+    240427 958  0.3+  0.2-

Ephemeris:
2024 HP1                 a,e,i = 1.77, 0.48, 5                   q = 0.9295
Date    TT    R. A. (2000) Decl.     Delta      r    Elong.  Phase     V
2024 03 29    04 21 52.3 +20 11 41   0.1229  0.9402    58.6   115.0    24.2
...
2024 04 13    05 47 02.2 +53 30 15   0.05347 0.9841    68.2   108.9    22.1
...
2024 04 21    13 23 22.0 +61 59 21   0.04787 1.0190   105.9    71.5    20.3
...
2024 04 27    14 59 23.5 +37 21 42   0.06774 1.0495   127.9    49.2    20.5
2024 04 28    15 05 12.1 +34 29 38   0.07215 1.0549   130.3    46.7    20.5
2024 04 29    15 09 58.6 +31 55 45   0.07674 1.0603   132.4    44.5    20.6
...
2024 05 05    15 26 33.9 +21 03 03   0.1072  1.0946   141.6    34.9    21.2
...
2024 05 13    15 35 20.4 +12 54 58   0.1531  1.1437   148.5    27.5    21.8
...
2024 05 28    15 41 45.8 +04 26 55   0.2527  1.2429   152.5    22.1    22.9

M. P. C. Staff               (C) Copyright 2024 MPC           M.P.E.C. 2024-H82





More information about the Iaude mailing list